This is the latest recevied weather packets stored in our database for station/object KC5DAQ-27. If no packets are shown the sender has not sent any weather packets the latest 1 day(s).
| Time | Temp. | Humidity | Pressure | Rain* | Wind** | Luminosity | Snow |
|---|---|---|---|---|---|---|---|
| 1777988009 | 22.78° C | 95% | 1000.5 hPa | 0.25 mm | 4.02 m/s, 169° | 143 W/m² | - |
| 1777987948 | 22.78° C | 95% | 1000.4 hPa | 0.25 mm | 3.58 m/s, 175° | 130 W/m² | - |
| 1777987889 | 22.78° C | 95% | 1000.5 hPa | 0.25 mm | 2.68 m/s, 188° | 118 W/m² | - |
| 1777987833 | 22.78° C | 95% | 1000.5 hPa | 0.25 mm | 3.13 m/s, 164° | 102 W/m² | - |
| 1777987768 | 22.78° C | 95% | 1000.5 hPa | 0.25 mm | 3.13 m/s, 162° | 88 W/m² | - |
| 1777987709 | 22.78° C | 95% | 1000.5 hPa | 0.25 mm | 2.68 m/s, 155° | 83 W/m² | - |
| 1777987648 | 22.78° C | 95% | 1000.4 hPa | 0.25 mm | 3.13 m/s, 207° | 102 W/m² | - |
| 1777987588 | 22.78° C | 95% | 1000.6 hPa | 0.25 mm | 3.58 m/s, 171° | 111 W/m² | - |
| 1777987528 | 22.78° C | 95% | 1000.5 hPa | 0.25 mm | 3.58 m/s, 172° | 114 W/m² | - |
| 1777987469 | 22.78° C | 95% | 1000.6 hPa | 0.25 mm | 3.13 m/s, 183° | 102 W/m² | - |
| 1777987410 | 22.78° C | 95% | 1000.6 hPa | 0.25 mm | 2.68 m/s, 186° | 81 W/m² | - |
| 1777987349 | 22.78° C | 95% | 1000.6 hPa | 0.25 mm | 3.13 m/s, 165° | 74 W/m² | - |
| 1777987288 | 22.78° C | 95% | 1000.6 hPa | 0.25 mm | 3.58 m/s, 171° | 74 W/m² | - |
| 1777987230 | 22.22° C | 95% | 1000.6 hPa | 0.25 mm | 3.13 m/s, 162° | 77 W/m² | - |
| 1777987168 | 22.22° C | 95% | 1000.6 hPa | 0 mm | 2.24 m/s, 172° | 76 W/m² | - |
| 1777987108 | 22.22° C | 95% | 1000.6 hPa | 0 mm | 2.24 m/s, 196° | 72 W/m² | - |
| 1777987048 | 22.22° C | 95% | 1000.6 hPa | 0 mm | 1.79 m/s, 182° | 67 W/m² | - |
| 1777986988 | 22.22° C | 95% | 1000.5 hPa | 0 mm | 2.24 m/s, 157° | 67 W/m² | - |
| 1777986929 | 22.22° C | 95% | 1000.6 hPa | 0 mm | 1.79 m/s, 193° | 70 W/m² | - |
| 1777986869 | 22.22° C | 95% | 1000.5 hPa | 0 mm | 1.34 m/s, 182° | 74 W/m² | - |
| 1777986809 | 22.22° C | 95% | 1000.5 hPa | 0 mm | 1.34 m/s, 172° | 77 W/m² | - |
| 1777986749 | 22.22° C | 95% | 1000.5 hPa | 0 mm | 1.79 m/s, 173° | 90 W/m² | - |
| 1777986688 | 22.22° C | 95% | 1000.5 hPa | 0 mm | 2.24 m/s, 161° | 93 W/m² | - |
| 1777986630 | 22.22° C | 95% | 1000.5 hPa | 0 mm | 2.24 m/s, 171° | 90 W/m² | - |
| 1777986568 | 22.22° C | 95% | 1000.5 hPa | 0 mm | 2.68 m/s, 178° | 93 W/m² | - |
* Rain latest hour (hover to see other rain measurements)
** Current wind speed in m/s (hover to see current wind gust speed)